TimeMDT,TemperatureF,Dew PointF,Humidity,Sea Level PressureIn,VisibilityMPH,Wind Direction,Wind SpeedMPH,Gust SpeedMPH,PrecipitationIn,Events,Conditions,WindDirDegrees,DateUTC
12:55 AM,68.0,61.0,78,29.81,10.0,WNW,5.8,-,N/A,,Clear,290,2013-08-27 06:55:00
1:55 AM,66.9,62.1,84,29.81,10.0,West,4.6,-,N/A,,Clear,260,2013-08-27 07:55:00
2:55 AM,66.0,62.1,87,29.82,10.0,WSW,4.6,-,N/A,,Clear,240,2013-08-27 08:55:00
3:55 AM,66.9,64.0,90,29.82,10.0,WNW,5.8,-,N/A,,Clear,300,2013-08-27 09:55:00
4:55 AM,64.9,62.1,90,29.83,10.0,West,5.8,-,N/A,,Clear,280,2013-08-27 10:55:00
5:55 AM,64.0,62.1,93,29.85,10.0,West,5.8,-,N/A,,Clear,260,2013-08-27 11:55:00
6:55 AM,66.0,63.0,90,29.86,9.0,West,3.5,-,N/A,,Clear,280,2013-08-27 12:55:00
7:55 AM,73.0,64.9,76,29.88,10.0,WSW,4.6,-,N/A,,Clear,240,2013-08-27 13:55:00
8:55 AM,78.1,70.0,76,29.88,10.0,WSW,3.5,-,N/A,,Clear,250,2013-08-27 14:55:00
9:55 AM,86.0,69.1,57,29.88,10.0,Calm,Calm,-,N/A,,Clear,0,2013-08-27 15:55:00
10:55 AM,90.0,69.1,50,29.88,10.0,East,9.2,-,N/A,,Clear,80,2013-08-27 16:55:00
11:55 AM,91.0,68.0,47,29.85,10.0,SE,10.4,-,N/A,,Clear,130,2013-08-27 17:55:00
12:55 PM,95.0,66.9,40,29.83,10.0,SE,9.2,16.1,N/A,,Clear,140,2013-08-27 18:55:00
1:55 PM,98.1,66.0,35,29.82,10.0,South,6.9,16.1,N/A,,Clear,180,2013-08-27 19:55:00
2:55 PM,98.1,62.1,30,29.81,10.0,South,6.9,-,N/A,,Clear,190,2013-08-27 20:55:00
3:55 PM,99.0,64.0,32,29.79,10.0,SSE,10.4,-,N/A,,Clear,160,2013-08-27 21:55:00
4:55 PM,99.0,61.0,28,29.78,10.0,SE,11.5,17.3,N/A,,Clear,140,2013-08-27 22:55:00
5:55 PM,97.0,61.0,30,29.78,10.0,SE,12.7,-,N/A,,Clear,140,2013-08-27 23:55:00
6:55 PM,93.9,61.0,33,29.78,10.0,SE,9.2,-,N/A,,Clear,130,2013-08-28 00:55:00
7:55 PM,84.9,63.0,48,29.79,10.0,East,9.2,-,N/A,,Clear,80,2013-08-28 01:55:00
8:55 PM,84.0,69.1,61,29.81,10.0,East,8.1,-,N/A,,Clear,100,2013-08-28 02:55:00
9:55 PM,82.0,71.1,69,29.81,10.0,East,10.4,-,N/A,,Clear,80,2013-08-28 03:55:00
10:55 PM,79.0,69.1,72,29.81,10.0,East,6.9,-,N/A,,Clear,100,2013-08-28 04:55:00
11:55 PM,78.1,71.1,79,29.82,10.0,East,8.1,-,N/A,,Clear,80,2013-08-28 05:55:00